Terminal Aerodrome Forecast
Issued by NWS Charleston, WV

Current Version | Previous Version | Text Only | Print | Product List | Glossary Off
Versions: 1 2 3 4 5 6 7 8 9 10 11 12 13 14 15 16 17 18 19 20 21 22

000
FTUS41 KRLX 101100
TAFHTS
TAF
KHTS 101137Z 1012/1112 00000KT 6SM BR SKC
     FM101230 32004KT P6SM SKC
     FM101700 VRB03KT P6SM SCT080
     FM102300 01004KT P6SM FEW050
     FM110200 00000KT P6SM FEW110
     FM111000 00000KT 6SM BR SCT250=

USA.gov is the U.S. government's official web portal to all federal, state and local government web resources and services.